Regional Weather Roundup
Issued by NWS

Home | Current Version | Previous Version | Graphics & Text | Print | Product List | Glossary On
Versions: 1 2 3 4 5 6 7 8 9 10 11 12 13 14 15 16 17 18 19 20 21 22 23 24 25 26 27 28 29 30 31 32 33 34 35 36 37 38 39 40 41 42 43 44 45 46 47 48 49 50
001
ASUS44 KLIX 220205
RWRLA
LOUISIANA WEATHER ROUNDUP
NATIONAL WEATHER SERVICE NEW ORLEANS LA
800 PM CST SUN DEC 21 2014

NOTE: "FAIR" INDICATES FEW OR NO CLOUDS BELOW 12,000 FEET WITH NO
      SIGNIFICANT WEATHER AND/OR OBSTRUCTIONS TO VISIBILITY.
      SKY/WX - SKY CONDITION AND SIGNIFICANT WEATHER.
      TMP - AIR TEMPERATURE.    DP   - DEWPOINT TEMPERATURE.
      RH  - RELATIVE HUMIDITY.  PRES - PRESSURE.
      HX  - HEAT INDEX.         WCI  - WIND CHILL INDEX.

*  THESE STATIONS ARE NOT NWS OR FAA STATIONS AND ARE NOT UNDER
   NWS QUALITY CONTROL.

LAZ040-048-061>063-065-066-069-220300-
SOUTHEAST LOUISIANA

CITY           SKY/WX    TMP DP  RH WIND       PRES   REMARKS
N.O. AUDUBON     N/A     56  53  90 MISG        N/A
N.O. INTL ARPT CLOUDY    54  51  90 E6        29.97F FOG
N.O. LAKEFRONT CLOUDY    56  52  86 E9        29.98F FOG
N.O. DOWNTOWN* CLOUDY    55  48  76 E8        29.98S
SLIDELL        CLOUDY    53  50  89 CALM      29.97F
BATON ROUGE    CLOUDY    53  50  89 E3        29.97S
BOOTHVILLE     CLOUDY    57  56  96 NE6       29.98S FOG
BELLE CHASSE   CLOUDY    56  53  90 E7        29.97F
BOGALUSA*        N/A     55  50  83 E3        30.00F
GALLIANO*      CLOUDY    58  56  92 MISG      29.98S FOG
NEW ROADS*     CLOUDY    52  50  94 CALM      29.98S
GONZALES*      MOCLDY    53  53 100 CALM      29.97R
HAMMOND*       NOT AVBL
HOUMA*         CLOUDY    53  52  95 NE3       29.97S FOG
PORT FOURCHON* CLOUDY    59  55  88 E8G15     30.00S

$$

LAZ041-044-053-054-220300-
SOUTHWEST LOUISIANA

CITY           SKY/WX    TMP DP  RH WIND       PRES   REMARKS
LAKE CHARLES   CLOUDY    52  49  89 N3        29.96F
LAFAYETTE      CLOUDY    52  49  89 N6        29.97F
PATTERSON      MOCLDY    52  50  93 E3        29.98R
SALT POINT       N/A     55  50  83 CALM      29.96R
NEW IBERIA     CLOUDY    53  51  93 N5        29.97S FOG
CHENAULT AIRPK CLOUDY    52  48  87 CALM      29.97F FOG

$$

LAZ027-028-220300-
CENTRAL LOUISIANA

CITY           SKY/WX    TMP DP  RH WIND       PRES   REMARKS
FORT POLK      CLOUDY    50  48  95 SE7       29.94F
ALEXANDRIA INT CLOUDY    49  48  97 SE10      29.95F
ALEXANDRIA     CLOUDY    49  48  97 S3        29.97S

$$

LAZ001-002-220300-
NORTHWEST LOUISIANA

CITY           SKY/WX    TMP DP  RH WIND       PRES   REMARKS
SHREVEPORT     PTCLDY    50  45  83 SW7       29.92R
BARKSDALE AFB  NOT AVBL
DTN SHREVEPORT PTCLDY    51  44  77 S7        29.92R

$$

LAZ014-016-220300-
NORTHEAST LOUISIANA

CITY           SKY/WX    TMP DP  RH WIND       PRES   REMARKS
MONROE         PTCLDY    45  43  93 CALM      29.96S
TALLULAH       CLEAR     51  46  83 SE9       29.97S

$$




USA.gov is the U.S. government's official web portal to all federal, state and local government web resources and services.